Flag for U.S.A. Weather past 2 weeks in Madison, Wisconsin, U.S.A.

Now
61 °F

Passing clouds.


Feels Like: 61 °F
Forecast: 59 / 78 °F
Wind: No wind

Location: Dane County Regional-Truax Field

Current Time: Jul 30, 2014 at 2:25:28 AM

Latest Report: Jul 30, 2014 at 1:53 AM


Visibility: 10 mi

Pressure: 30.00 "Hg

Humidity: 83%

Dew point: 56 °F

Location of MadisonLocation

Historic Weather in Madison — Graph

°F

Madison temperature yesterday

Maximum temperature yesterday: 79 °F (at 1:53 PM)
Minimum temperature yesterday: 59 °F (at 4:53 AM)
Average temperature yesterday: 68 °F

Past Weeks' High & Low Weather Summary

 TemperatureHumidityPressure
High87 °F (Jul 22, 6:53 PM)96% (Jul 17, 2:53 AM)30.19 "Hg (Jul 17, 2:53 AM)
Low49 °F (Jul 16, 5:53 AM)36% (Jul 17, 1:53 PM)29.73 "Hg (Jul 27, 9:53 AM)
Average69 °F67%30.01 "Hg
* Reported Jul 15 12:53 AM — Jul 30 12:53 AM, Madison, Weather by CustomWeather, © 2014

Note: Actual official high and low records may vary slightly from our data, if they occured in-between our weather recording intervals... More about our weather records

Advertising

Madison weather history for previous 24 hours

 ConditionsComfort  
Time TempWeatherWind HumidityBarometerVisibility
12:53 AM
Jul 30
61 °FClear.No wind87%30.01 "Hg10 mi
11:53 PM
Jul 29
60 °FClear.No wind86%30.02 "Hg10 mi
10:53 PM62 °FPassing clouds.No wind83%30.02 "Hg10 mi
9:53 PM64 °FPassing clouds.3 mph81%30.03 "Hg10 mi
8:53 PM65 °FOvercast.3 mph78%30.03 "Hg9 mi
7:53 PM65 °FPartly sunny.6 mph78%30.02 "Hg10 mi
6:53 PM66 °FLight rain. Mostly cloudy.7 mph73%30.00 "Hg8 mi
5:53 PM76 °FPartly sunny.8 mph47%29.99 "Hg10 mi
4:53 PM79 °FScattered clouds.7 mph42%29.99 "Hg10 mi
3:53 PM79 °FScattered clouds.8 mph41%30.00 "Hg10 mi
2:53 PM78 °FPartly sunny.10 mph43%30.02 "Hg10 mi
1:53 PM79 °FScattered clouds.10 mph42%30.02 "Hg10 mi
12:53 PM77 °FPassing clouds.7 mph45%30.03 "Hg10 mi
11:53 AM76 °FPassing clouds.7 mph52%30.04 "Hg10 mi
10:53 AM74 °FPassing clouds.8 mph56%30.05 "Hg10 mi
9:53 AM71 °FPassing clouds.8 mph59%30.06 "Hg10 mi
8:53 AM68 °FScattered clouds.6 mph63%30.06 "Hg10 mi
7:53 AM63 °FSunny.No wind73%30.06 "Hg10 mi
6:53 AM60 °FPassing clouds.5 mph78%30.05 "Hg10 mi
5:53 AM59 °FPassing clouds.5 mph78%30.04 "Hg10 mi
4:53 AM59 °FPassing clouds.No wind78%30.04 "Hg10 mi
3:53 AM61 °FPassing clouds.6 mph72%30.03 "Hg10 mi
2:53 AM61 °FPassing clouds.5 mph72%30.04 "Hg10 mi
Weather by CustomWeather, © 2014

See weather overviewHow to use our weather pages